2 Carport Messungen

Zurück zum Überblick

Zeitpunkt Temperatur Luftfeuchte
15.10.2019 12:08:56 23,3 C 61,0%
15.10.2019 12:07:12 23,0 C 61,0%
15.10.2019 11:54:53 22,7 C 62,0%
15.10.2019 11:47:52 22,5 C 62,0%
15.10.2019 11:40:49 22,1 C 64,0%
15.10.2019 11:33:45 21,7 C 63,0%
15.10.2019 11:26:43 21,6 C 64,0%
15.10.2019 11:19:40 21,5 C 64,0%
15.10.2019 11:12:38 21,3 C 64,0%
15.10.2019 11:05:37 20,9 C 65,0%
15.10.2019 10:58:35 20,6 C 66,0%
15.10.2019 10:51:34 20,2 C 66,0%
15.10.2019 10:44:32 20,0 C 67,0%
15.10.2019 10:37:30 19,6 C 67,0%
15.10.2019 10:30:28 19,3 C 68,0%
15.10.2019 10:23:24 19,0 C 68,0%
15.10.2019 10:16:21 18,7 C 69,0%
15.10.2019 10:09:18 18,4 C 69,0%
15.10.2019 10:02:17 18,1 C 70,0%
15.10.2019 09:55:14 17,8 C 70,0%
15.10.2019 09:48:13 17,6 C 70,0%
15.10.2019 09:41:10 17,4 C 70,0%
15.10.2019 09:34:08 17,3 C 70,0%
15.10.2019 09:26:56 17,0 C 70,0%
15.10.2019 09:20:02 16,9 C 70,0%
15.10.2019 09:13:01 16,8 C 70,0%
15.10.2019 09:05:58 16,7 C 70,0%
15.10.2019 08:58:55 16,7 C 70,0%
15.10.2019 08:51:54 16,7 C 70,0%
15.10.2019 08:44:51 16,7 C 70,0%
15.10.2019 08:37:49 16,6 C 70,0%
15.10.2019 08:30:46 16,7 C 69,0%
15.10.2019 08:23:45 16,7 C 69,0%
15.10.2019 08:16:43 16,7 C 69,0%
15.10.2019 08:09:41 16,7 C 69,0%
15.10.2019 08:02:40 16,6 C 69,0%
15.10.2019 07:55:38 16,7 C 69,0%
15.10.2019 07:48:37 16,7 C 69,0%
15.10.2019 07:41:35 16,7 C 68,0%
15.10.2019 07:34:33 16,7 C 68,0%
15.10.2019 07:27:30 16,8 C 68,0%
15.10.2019 07:20:29 16,9 C 68,0%
15.10.2019 07:13:27 16,9 C 68,0%
15.10.2019 07:06:24 17,0 C 68,0%
15.10.2019 06:59:23 17,0 C 68,0%
15.10.2019 06:52:20 17,1 C 68,0%
15.10.2019 06:45:18 17,1 C 68,0%
15.10.2019 06:38:16 17,2 C 68,0%
15.10.2019 06:31:15 17,2 C 68,0%
15.10.2019 06:24:12 17,3 C 68,0%
15.10.2019 06:17:11 17,3 C 67,0%
15.10.2019 06:10:10 17,3 C 67,0%
15.10.2019 06:03:08 17,4 C 67,0%
15.10.2019 05:56:05 17,5 C 67,0%
15.10.2019 05:49:05 17,5 C 67,0%
15.10.2019 05:42:03 17,5 C 67,0%
15.10.2019 05:35:01 17,5 C 67,0%
15.10.2019 05:27:57 17,6 C 67,0%
15.10.2019 05:20:56 17,6 C 67,0%
15.10.2019 05:13:55 17,6 C 66,0%
15.10.2019 05:06:54 17,7 C 66,0%
15.10.2019 04:59:52 17,7 C 66,0%
15.10.2019 04:52:50 17,7 C 66,0%
15.10.2019 04:45:46 17,8 C 66,0%
15.10.2019 04:38:45 17,8 C 66,0%
15.10.2019 04:31:44 17,8 C 66,0%
15.10.2019 04:24:42 17,8 C 66,0%
15.10.2019 04:17:39 17,8 C 66,0%
15.10.2019 04:10:36 17,9 C 66,0%
15.10.2019 04:03:35 17,9 C 66,0%
15.10.2019 03:56:34 18,0 C 66,0%
15.10.2019 03:49:33 18,0 C 66,0%
15.10.2019 03:42:31 18,0 C 66,0%
15.10.2019 03:35:28 18,1 C 66,0%
15.10.2019 03:28:27 18,1 C 66,0%
15.10.2019 03:21:27 18,1 C 66,0%
15.10.2019 03:14:24 18,1 C 66,0%
15.10.2019 03:07:22 18,1 C 66,0%
15.10.2019 03:00:19 18,2 C 66,0%
15.10.2019 02:53:17 18,2 C 66,0%
15.10.2019 02:46:17 18,3 C 66,0%
15.10.2019 02:39:15 18,3 C 66,0%
15.10.2019 02:32:14 18,3 C 65,0%
15.10.2019 02:25:12 18,3 C 65,0%
15.10.2019 02:18:11 18,4 C 65,0%
15.10.2019 02:11:07 18,4 C 65,0%
15.10.2019 02:04:06 18,4 C 65,0%
15.10.2019 01:57:03 18,4 C 65,0%
15.10.2019 01:50:01 18,5 C 65,0%
15.10.2019 01:42:59 18,5 C 65,0%
15.10.2019 01:35:55 18,6 C 65,0%
15.10.2019 01:28:53 18,6 C 65,0%
15.10.2019 01:21:43 18,6 C 64,0%
15.10.2019 01:14:49 18,6 C 64,0%
15.10.2019 01:07:48 18,7 C 64,0%
15.10.2019 01:00:45 18,7 C 64,0%
15.10.2019 00:53:43 18,7 C 64,0%
15.10.2019 00:46:42 18,7 C 64,0%
15.10.2019 00:39:40 18,7 C 64,0%
15.10.2019 00:32:39 18,7 C 64,0%
15.10.2019 00:25:36 18,8 C 64,0%
15.10.2019 00:18:33 18,7 C 63,0%
15.10.2019 00:11:31 18,8 C 63,0%
15.10.2019 00:04:29 18,8 C 63,0%